When you browse on this site, cookies collect data to enhance your experience and personalize the content and advertising you see.
Visit our Privacy Policy to learn more. By continuing to use the site, you agree to this use of cookies and data.
  • In Slovakia
  • List of Countries
  • For 7 days
  • Water Temperature
  • Satellite Maps
  • Weather Map
  • Weather Widgets
  • user-avatar
    Login

    Hourly Weather Lezhe

    Today, 20 July, Saturday

    Time Temperature Precipitation Wind Pressure Humidity
    00:00 +21°C° 0 mm 1 mps 739 mmHg 72%
    01:00 +20°C° 0 mm 1 mps 739 mmHg 71%
    02:00 +20°C° 0 mm 1 mps 739 mmHg 70%
    03:00 +20°C° 0 mm 1 mps 739 mmHg 70%
    04:00 +20°C° 0 mm 1 mps 739 mmHg 69%
    05:00 +22°C° 0 mm 1 mps 739 mmHg 64%
    06:00 +24°C° 0 mm 1 mps 739 mmHg 60%
    07:00 +25°C° 0 mm 1 mps 739 mmHg 55%
    08:00 +28°C° 0 mm 1 mps 740 mmHg 49%
    09:00 +30°C° 0 mm 1 mps 740 mmHg 44%
    10:00 +32°C° 0 mm 1 mps 740 mmHg 39%
    11:00 +32°C° 0 mm 2 mps 740 mmHg 38%
    12:00 +32°C° 0 mm 2 mps 740 mmHg 37%
    13:00 +34°C° 0 mm 3 mps 740 mmHg 36%
    14:00 +33°C° 0 mm 3 mps 740 mmHg 38%
    15:00 +31°C° 0 mm 3 mps 740 mmHg 40%
    16:00 +31°C° 0 mm 3 mps 739 mmHg 42%
    17:00 +29°C° 0 mm 2 mps 740 mmHg 49%
    18:00 +26°C° 0 mm 1 mps 740 mmHg 56%
    19:00 +24°C° 0 mm 1 mps 740 mmHg 63%
    20:00 +24°C° 0 mm 1 mps 740 mmHg 64%
    21:00 +23°C° 0 mm 1 mps 740 mmHg 65%
    22:00 +22°C° 0 mm 1 mps 740 mmHg 66%
    23:00 +22°C° 0 mm 1 mps 740 mmHg 65%

    Tomorrow, 21 July, Sunday

    Time Temperature Precipitation Wind Pressure Humidity
    00:00 +22°C° 0 mm 1 mps 740 mmHg 65%
    01:00 +22°C° 0 mm 1 mps 740 mmHg 65%
    02:00 +22°C° 0 mm 1 mps 740 mmHg 64%
    03:00 +21°C° 0 mm 1 mps 740 mmHg 64%
    04:00 +21°C° 0 mm 1 mps 740 mmHg 64%
    05:00 +23°C° 0 mm 1 mps 740 mmHg 60%
    06:00 +25°C° 0 mm 1 mps 740 mmHg 56%
    07:00 +25°C° 0 mm 0 mps 740 mmHg 51%
    08:00 +29°C° 0 mm 1 mps 741 mmHg 47%
    09:00 +31°C° 0 mm 1 mps 741 mmHg 42%
    10:00 +33°C° 0 mm 1 mps 741 mmHg 38%
    11:00 +34°C° 0 mm 2 mps 741 mmHg 37%
    12:00 +34°C° 0 mm 2 mps 741 mmHg 36%
    13:00 +34°C° 0 mm 3 mps 741 mmHg 35%
    14:00 +34°C° 0 mm 3 mps 740 mmHg 37%
    15:00 +34°C° 0 mm 2 mps 740 mmHg 38%
    16:00 +32°C° 0 mm 2 mps 740 mmHg 40%
    17:00 +30°C° 0 mm 2 mps 740 mmHg 47%
    18:00 +28°C° 0 mm 1 mps 740 mmHg 55%
    19:00 +26°C° 0 mm 1 mps 740 mmHg 62%
    20:00 +25°C° 0 mm 1 mps 740 mmHg 63%
    21:00 +25°C° 0 mm 1 mps 741 mmHg 64%
    22:00 +24°C° 0 mm 1 mps 741 mmHg 64%
    23:00 +24°C° 0 mm 1 mps 741 mmHg 64%

    Day after tomorrow, 22 July, Monday

    Time Temperature Precipitation Wind Pressure Humidity
    00:00 +24°C° 0 mm 1 mps 741 mmHg 64%
    01:00 +23°C° 0 mm 2 mps 740 mmHg 64%
    02:00 +23°C° 0 mm 2 mps 740 mmHg 62%
    03:00 +23°C° 0 mm 2 mps 740 mmHg 61%
    04:00 +23°C° 0 mm 2 mps 740 mmHg 60%
    05:00 +25°C° 0 mm 2 mps 740 mmHg 56%
    06:00 +26°C° 0 mm 2 mps 740 mmHg 53%
    07:00 +28°C° 0 mm 1 mps 740 mmHg 50%
    08:00 +30°C° 0 mm 2 mps 741 mmHg 43%
    09:00 +32°C° 0 mm 2 mps 741 mmHg 37%
    10:00 +35°C° 0 mm 2 mps 741 mmHg 30%
    11:00 +36°C° 0 mm 3 mps 741 mmHg 29%
    12:00 +36°C° 0 mm 3 mps 740 mmHg 27%
    13:00 +37°C° 0 mm 3 mps 740 mmHg 26%
    14:00 +37°C° 0 mm 3 mps 740 mmHg 27%
    15:00 +37°C° 0 mm 3 mps 740 mmHg 28%
    16:00 +36°C° 0 mm 3 mps 740 mmHg 29%
    17:00 +34°C° 0 mm 2 mps 740 mmHg 36%
    18:00 +31°C° 0 mm 2 mps 740 mmHg 44%
    19:00 +28°C° 0 mm 2 mps 740 mmHg 52%
    20:00 +28°C° 0 mm 2 mps 740 mmHg 53%
    21:00 +27°C° 0 mm 3 mps 740 mmHg 55%
    22:00 +26°C° 0 mm 3 mps 740 mmHg 57%
    23:00 +26°C° 0 mm 3 mps 740 mmHg 60%

    23 July, Tuesday

    Time Temperature Precipitation Wind Pressure Humidity
    00:00 +25°C° 0 mm 3 mps 740 mmHg 63%
    01:00 +24°C° 0 mm 3 mps 740 mmHg 67%
    02:00 +23°C° 0 mm 4 mps 739 mmHg 69%
    03:00 +22°C° 0 mm 4 mps 739 mmHg 71%
    04:00 +21°C° 0 mm 4 mps 739 mmHg 72%
    05:00 +23°C° 0 mm 4 mps 739 mmHg 66%
    06:00 +25°C° 0 mm 4 mps 739 mmHg 60%
    07:00 +27°C° 0 mm 4 mps 739 mmHg 54%
    08:00 +28°C° 0 mm 4 mps 739 mmHg 47%
    09:00 +30°C° 0 mm 4 mps 739 mmHg 39%
    10:00 +33°C° 0 mm 4 mps 739 mmHg 32%
    11:00 +33°C° 0 mm 4 mps 739 mmHg 30%
    12:00 +34°C° 0 mm 4 mps 738 mmHg 28%
    13:00 +35°C° 0 mm 4 mps 738 mmHg 26%
    14:00 +35°C° 0 mm 4 mps 738 mmHg 28%
    15:00 +35°C° 0 mm 4 mps 737 mmHg 29%
    16:00 +34°C° 0 mm 4 mps 737 mmHg 31%
    17:00 +32°C° 0 mm 4 mps 737 mmHg 36%
    18:00 +29°C° 0 mm 4 mps 737 mmHg 41%
    19:00 +27°C° 0 mm 4 mps 737 mmHg 46%
    20:00 +26°C° 0 mm 4 mps 737 mmHg 48%
    21:00 +26°C° 0 mm 5 mps 738 mmHg 49%
    22:00 +25°C° 0 mm 5 mps 738 mmHg 51%
    23:00 +23°C° 0 mm 5 mps 738 mmHg 54%

    24 July, Wednesday

    Time Temperature Precipitation Wind Pressure Humidity
    00:00 +22°C° 0 mm 5 mps 738 mmHg 58%
    01:00 +21°C° 0 mm 5 mps 738 mmHg 61%
    02:00 +21°C° 0 mm 5 mps 737 mmHg 63%
    03:00 +20°C° 0 mm 5 mps 737 mmHg 65%
    04:00 +19°C° 0 mm 5 mps 737 mmHg 67%
    05:00 +21°C° 0 mm 5 mps 737 mmHg 62%
    06:00 +22°C° 0 mm 5 mps 737 mmHg 58%
    07:00 +23°C° 0 mm 6 mps 738 mmHg 53%
    08:00 +26°C° 0 mm 6 mps 738 mmHg 47%
    09:00 +28°C° 0 mm 6 mps 738 mmHg 41%
    10:00 +29°C° 0 mm 6 mps 738 mmHg 35%
    11:00 +30°C° 0 mm 5 mps 738 mmHg 33%
    12:00 +32°C° 0 mm 5 mps 738 mmHg 30%
    13:00 +33°C° 0 mm 5 mps 738 mmHg 27%
    14:00 +33°C° 0 mm 5 mps 738 mmHg 27%
    15:00 +33°C° 0 mm 5 mps 737 mmHg 27%
    16:00 +33°C° 0 mm 4 mps 737 mmHg 27%
    17:00 +30°C° 0 mm 4 mps 737 mmHg 32%
    18:00 +28°C° 0 mm 4 mps 738 mmHg 37%
    19:00 +26°C° 0 mm 4 mps 738 mmHg 42%
    20:00 +25°C° 0 mm 4 mps 738 mmHg 45%
    21:00 +23°C° 0 mm 4 mps 739 mmHg 49%
    22:00 +22°C° 0 mm 4 mps 739 mmHg 53%
    23:00 +22°C° 0 mm 4 mps 739 mmHg 56%

    25 July, Thursday

    Time Temperature Precipitation Wind Pressure Humidity
    00:00 +21°C° 0 mm 4 mps 739 mmHg 59%
    01:00 +20°C° 0 mm 4 mps 739 mmHg 62%
    02:00 +20°C° 0 mm 4 mps 739 mmHg 64%
    03:00 +19°C° 0 mm 4 mps 739 mmHg 65%
    04:00 +19°C° 0 mm 3 mps 739 mmHg 67%
    05:00 +21°C° 0 mm 3 mps 739 mmHg 63%
    06:00 +24°C° 0 mm 3 mps 739 mmHg 59%
    07:00 +25°C° 0 mm 3 mps 739 mmHg 55%
    08:00 +27°C° 0 mm 3 mps 739 mmHg 49%
    09:00 +29°C° 0 mm 2 mps 739 mmHg 43%
    10:00 +31°C° 0 mm 2 mps 740 mmHg 38%
    11:00 +32°C° 0 mm 2 mps 739 mmHg 35%
    12:00 +34°C° 0 mm 2 mps 739 mmHg 32%
    13:00 +35°C° 0 mm 2 mps 739 mmHg 29%
    14:00 +35°C° 0 mm 2 mps 739 mmHg 31%
    15:00 +34°C° 0 mm 2 mps 739 mmHg 32%
    16:00 +34°C° 0 mm 3 mps 738 mmHg 34%
    17:00 +30°C° 0 mm 2 mps 738 mmHg 41%
    18:00 +28°C° 0 mm 1 mps 738 mmHg 48%
    19:00 +25°C° 0 mm 1 mps 738 mmHg 55%
    20:00 +25°C° 0 mm 1 mps 739 mmHg 56%
    21:00 +24°C° 0 mm 1 mps 739 mmHg 57%
    22:00 +24°C° 0 mm 2 mps 739 mmHg 59%
    23:00 +23°C° 0 mm 2 mps 739 mmHg 59%
    Show more